| time (UTC) | temp F | wind direction | speed MPH | gust MPH | rain 1hr in | rain 24hr in | rain mn in | humidity % | barometer mb |
| 20260505034501 | 67 | 190 | 4.0 | 12.0 | 0.00 | 0.00 | 0.00 | 61 | 1002.5 |
| 20260505032929 | 68 | 182 | 4.0 | 12.0 | 0.00 | 0.00 | 0.00 | 61 | 1002.6 |
| 20260505031914 | 68 | 180 | 4.0 | 12.0 | 0.00 | 0.00 | 0.00 | 61 | 1002.6 |
| 20260505031414 | 68 | 189 | 3.0 | 12.0 | 0.00 | 0.00 | 0.00 | 61 | 1002.7 |
| 20260505030914 | 68 | 193 | 3.0 | 12.0 | 0.00 | 0.00 | 0.00 | 61 | 1002.8 |
| 20260505030413 | 68 | 191 | 4.0 | 12.0 | 0.00 | 0.00 | 0.00 | 61 | 1002.7 |
| 20260505025912 | 68 | 185 | 3.0 | 12.0 | 0.00 | 0.00 | 0.00 | 61 | 1002.7 |
| 20260505025412 | 68 | 195 | 4.0 | 12.0 | 0.00 | 0.00 | 0.00 | 60 | 1002.6 |
| 20260505024912 | 68 | 192 | 3.0 | 12.0 | 0.00 | 0.00 | 0.00 | 60 | 1002.6 |
| 20260505024412 | 69 | 197 | 3.0 | 12.0 | 0.00 | 0.00 | 0.00 | 59 | 1002.6 |
| 20260505023912 | 69 | 188 | 3.0 | 12.0 | 0.00 | 0.00 | 0.00 | 58 | 1002.6 |
| 20260505023412 | 69 | 184 | 3.0 | 12.0 | 0.00 | 0.00 | 0.00 | 58 | 1002.7 |
| 20260505022912 | 69 | 201 | 3.0 | 12.0 | 0.00 | 0.00 | 0.00 | 58 | 1002.9 |
| 20260505022412 | 69 | 197 | 3.0 | 12.0 | 0.00 | 0.00 | 0.00 | 58 | 1002.7 |
| 20260505021912 | 69 | 198 | 5.0 | 12.0 | 0.00 | 0.00 | 0.00 | 58 | 1002.7 |
| 20260505021412 | 69 | 198 | 3.0 | 12.0 | 0.00 | 0.00 | 0.00 | 57 | 1002.7 |
| 20260505020912 | 69 | 192 | 3.0 | 12.0 | 0.00 | 0.00 | 0.00 | 57 | 1002.5 |
| 20260505020412 | 69 | 186 | 3.0 | 12.0 | 0.00 | 0.00 | 0.00 | 57 | 1002.3 |
| 20260505015912 | 69 | 186 | 3.0 | 12.0 | 0.00 | 0.00 | 0.00 | 57 | 1002.4 |
| 20260505015412 | 69 | 189 | 4.0 | 12.0 | 0.00 | 0.00 | 0.00 | 57 | 1002.5 |
| 20260505014912 | 69 | 192 | 3.0 | 12.0 | 0.00 | 0.00 | 0.00 | 57 | 1002.2 |
| 20260505014412 | 69 | 194 | 4.0 | 12.0 | 0.00 | 0.00 | 0.00 | 57 | 1002.4 |
| 20260505013911 | 69 | 198 | 3.0 | 12.0 | 0.00 | 0.00 | 0.00 | 56 | 1002.2 |
| 20260505013411 | 69 | 188 | 3.0 | 12.0 | 0.00 | 0.00 | 0.00 | 56 | 1002.1 |
| 20260505012911 | 70 | 193 | 3.0 | 12.0 | 0.00 | 0.00 | 0.00 | 55 | 1002.1 |
| 20260505012411 | 70 | 200 | 3.0 | 12.0 | 0.00 | 0.00 | 0.00 | 55 | 1001.8 |
| 20260505011911 | 70 | 190 | 3.0 | 12.0 | 0.00 | 0.00 | 0.00 | 55 | 1001.8 |
| 20260505011411 | 70 | 197 | 3.0 | 12.0 | 0.00 | 0.00 | 0.00 | 54 | 1001.4 |
| 20260505010911 | 71 | 195 | 4.0 | 12.0 | 0.00 | 0.00 | 0.00 | 54 | 1001.7 |
| 20260505010411 | 71 | 184 | 4.0 | 12.0 | 0.00 | 0.00 | 0.00 | 54 | 1001.5 |
| 20260505005911 | 71 | 191 | 3.0 | 12.0 | 0.00 | 0.00 | 0.00 | 54 | 1001.4 |
| 20260505005411 | 71 | 188 | 5.0 | 12.0 | 0.00 | 0.00 | 0.00 | 54 | 1001.3 |
| 20260505004910 | 71 | 186 | 3.0 | 12.0 | 0.00 | 0.00 | 0.00 | 53 | 1001.4 |
| 20260505004410 | 72 | 198 | 5.0 | 12.0 | 0.00 | 0.00 | 0.00 | 53 | 1001.2 |
| 20260505003910 | 72 | 197 | 6.0 | 12.0 | 0.00 | 0.00 | 0.00 | 53 | 1001.3 |
| 20260505003410 | 72 | 187 | 6.0 | 12.0 | 0.00 | 0.00 | 0.00 | 53 | 1001.1 |
| 20260505002909 | 72 | 185 | 4.0 | 12.0 | 0.00 | 0.00 | 0.00 | 52 | 1001.4 |
| 20260505002408 | 73 | 196 | 4.0 | 14.0 | 0.00 | 0.00 | 0.00 | 52 | 1001.3 |
| 20260505001352 | 73 | 200 | 6.0 | 15.0 | 0.00 | 0.00 | 0.00 | 51 | 1001.1 |
| 20260505000852 | 73 | 198 | 7.0 | 15.0 | 0.00 | 0.00 | 0.00 | 50 | 1001.3 |
| 20260505000351 | 74 | 205 | 7.0 | 14.0 | 0.00 | 0.00 | 0.00 | 50 | 1001.2 |
| 20260504235851 | 74 | 200 | 6.0 | 21.0 | 0.00 | 0.00 | 0.00 | 50 | 1001.2 |
| 20260504235350 | 74 | 193 | 5.0 | 21.0 | 0.00 | 0.00 | 0.00 | 49 | 993.0 |
| 20260504234850 | 75 | 202 | 8.0 | 15.0 | 0.00 | 0.00 | 0.00 | 49 | 992.0 |
| 20260504234350 | 75 | 197 | 8.0 | 18.0 | 0.00 | 0.00 | 0.00 | 48 | 991.3 |
| 20260504233849 | 75 | 214 | 7.0 | 20.0 | 0.00 | 0.00 | 0.00 | 48 | 988.9 |
| 20260504233348 | 75 | 194 | 8.0 | 20.0 | 0.00 | 0.00 | 0.00 | 47 | 987.9 |
| 20260504232332 | 75 | 197 | 8.0 | 18.0 | 0.00 | 0.00 | 0.00 | 46 | 992.9 |
| 20260504231831 | 76 | 205 | 6.0 | 16.0 | 0.00 | 0.00 | 0.00 | 46 | 985.3 |
| 20260504231330 | 76 | 195 | 9.0 | 16.0 | 0.00 | 0.00 | 0.00 | 45 | 992.8 |
| 20260504230829 | 76 | 207 | 7.0 | 14.0 | 0.00 | 0.00 | 0.00 | 45 | 994.5 |
| 20260504230329 | 76 | 219 | 7.0 | 16.0 | 0.00 | 0.00 | 0.00 | 44 | 997.6 |
| 20260504225312 | 76 | 208 | 12.0 | 22.0 | 0.00 | 0.00 | 0.00 | 43 | 999.2 |
| 20260504224811 | 76 | 206 | 10.0 | 22.0 | 0.00 | 0.00 | 0.00 | 44 | 999.4 |
| 20260504224311 | 76 | 213 | 9.0 | 21.0 | 0.00 | 0.00 | 0.00 | 45 | 1001.4 |
| 20260504223811 | 75 | 204 | 12.0 | 15.0 | 0.00 | 0.00 | 0.00 | 47 | 1000.3 |
| 20260504223310 | 75 | 197 | 7.0 | 14.0 | 0.00 | 0.00 | 0.00 | 52 | 1000.0 |
| 20260504222810 | 75 | 187 | 6.0 | 13.0 | 0.00 | 0.00 | 0.00 | 52 | 1002.1 |
| 20260504222309 | 74 | 183 | 6.0 | 13.0 | 0.00 | 0.00 | 0.00 | 53 | 1000.6 |
| 20260504221809 | 74 | 197 | 5.0 | 15.0 | 0.00 | 0.00 | 0.00 | 54 | 1001.1 |
| 20260504220754 | 74 | 187 | 7.0 | 14.0 | 0.00 | 0.00 | 0.00 | 54 | 1002.5 |
| 20260504220254 | 74 | 193 | 5.0 | 11.0 | 0.00 | 0.00 | 0.00 | 55 | 1003.1 |
| 20260504215753 | 74 | 186 | 6.0 | 11.0 | 0.00 | 0.00 | 0.00 | 55 | 1002.9 |
| 20260504215253 | 74 | 184 | 6.0 | 11.0 | 0.00 | 0.00 | 0.00 | 54 | 1002.7 |
| 20260504214752 | 74 | 175 | 4.0 | 11.0 | 0.00 | 0.00 | 0.00 | 54 | 1003.1 |
| 20260504214252 | 74 | 182 | 6.0 | 11.0 | 0.00 | 0.00 | 0.00 | 53 | 1002.9 |
| 20260504213236 | 74 | 200 | 5.0 | 11.0 | 0.00 | 0.00 | 0.00 | 55 | 1003.1 |
| 20260504212736 | 73 | 202 | 5.0 | 11.0 | 0.00 | 0.00 | 0.00 | 57 | 1000.5 |
| 20260504212236 | 73 | 194 | 3.0 | 11.0 | 0.00 | 0.00 | 0.00 | 58 | 1002.4 |
| 20260504211735 | 72 | 199 | 4.0 | 11.0 | 0.00 | 0.00 | 0.00 | 59 | 1003.1 |
| 20260504211234 | 72 | 211 | 3.0 | 11.0 | 0.00 | 0.00 | 0.00 | 59 | 1003.3 |
| 20260504210733 | 71 | 217 | 5.0 | 11.0 | 0.00 | 0.00 | 0.00 | 60 | 1003.3 |
| 20260504210233 | 71 | 186 | 4.0 | 11.0 | 0.00 | 0.00 | 0.00 | 63 | 1003.2 |
| 20260504205732 | 69 | 194 | 3.0 | 11.0 | 0.00 | 0.00 | 0.00 | 65 | 1003.1 |
| 20260504205232 | 69 | 191 | 4.0 | 11.0 | 0.00 | 0.00 | 0.00 | 67 | 1003.3 |
| 20260504204732 | 68 | 191 | 4.0 | 11.0 | 0.00 | 0.00 | 0.00 | 68 | 1003.5 |
| 20260504204232 | 68 | 181 | 5.0 | 11.0 | 0.00 | 0.00 | 0.00 | 68 | 1003.5 |
| 20260504203732 | 68 | 176 | 5.0 | 11.0 | 0.00 | 0.00 | 0.00 | 69 | 1002.9 |
| 20260504203232 | 68 | 174 | 4.0 | 11.0 | 0.00 | 0.00 | 0.00 | 70 | 1003.2 |
| 20260504202731 | 67 | 184 | 5.0 | 11.0 | 0.00 | 0.00 | 0.00 | 71 | 1003.7 |
| 20260504202230 | 66 | 196 | 3.0 | 11.0 | 0.00 | 0.00 | 0.00 | 74 | 1003.9 |
| 20260504201730 | 65 | 202 | 3.0 | 11.0 | 0.00 | 0.00 | 0.00 | 74 | 1004.1 |
| 20260504201229 | 65 | 228 | 4.0 | 11.0 | 0.00 | 0.00 | 0.00 | 73 | 1004.4 |
| 20260504200728 | 66 | 223 | 4.0 | 11.0 | 0.00 | 0.00 | 0.00 | 71 | 1004.4 |
| 20260504200227 | 67 | 210 | 6.0 | 11.0 | 0.00 | 0.00 | 0.00 | 68 | 1004.5 |
| 20260504195727 | 68 | 205 | 6.0 | 11.0 | 0.00 | 0.00 | 0.00 | 65 | 1004.3 |
| 20260504195227 | 68 | 208 | 6.0 | 12.0 | 0.00 | 0.00 | 0.00 | 61 | 1004.2 |
| 20260504194726 | 69 | 230 | 5.0 | 12.0 | 0.00 | 0.00 | 0.00 | 58 | 1004.1 |
| 20260504194226 | 69 | 229 | 3.0 | 13.0 | 0.00 | 0.00 | 0.00 | 56 | 1003.8 |
| 20260504193726 | 69 | 212 | 5.0 | 13.0 | 0.00 | 0.00 | 0.00 | 55 | 1004.0 |
| 20260504193225 | 68 | 229 | 5.0 | 15.0 | 0.00 | 0.00 | 0.00 | 57 | 1003.9 |
| 20260504192725 | 68 | 245 | 4.0 | 16.0 | 0.00 | 0.00 | 0.00 | 57 | 1003.8 |
| 20260504192224 | 67 | 229 | 7.0 | 20.0 | 0.00 | 0.00 | 0.00 | 57 | 1003.4 |
| 20260504191724 | 67 | 221 | 10.0 | 20.0 | 0.00 | 0.00 | 0.00 | 60 | 1004.4 |
| 20260504191224 | 65 | 219 | 10.0 | 23.0 | 0.00 | 0.00 | 0.00 | 62 | 1004.2 |
| 20260504190723 | 65 | 224 | 10.0 | 25.0 | 0.00 | 0.00 | 0.00 | 66 | 1004.2 |
| 20260504185707 | 69 | 208 | 9.0 | 19.0 | 0.00 | 0.00 | 0.00 | 61 | 1005.1 |
| 20260504185207 | 69 | 210 | 9.0 | 16.0 | 0.00 | 0.00 | 0.00 | 59 | 1004.9 |
| 20260504184707 | 69 | 217 | 8.0 | 18.0 | 0.00 | 0.00 | 0.00 | 59 | 1005.0 |
| 20260504184207 | 69 | 225 | 8.0 | 18.0 | 0.00 | 0.00 | 0.00 | 59 | 1005.6 |
| 20260504183707 | 69 | 216 | 5.0 | 14.0 | 0.00 | 0.00 | 0.00 | 60 | 1005.5 |
| 20260504183206 | 70 | 214 | 6.0 | 14.0 | 0.00 | 0.00 | 0.00 | 60 | 1005.3 |
| 20260504182706 | 70 | 198 | 7.0 | 16.0 | 0.00 | 0.00 | 0.00 | 58 | 1005.1 |
| 20260504182205 | 70 | 222 | 7.0 | 16.0 | 0.00 | 0.00 | 0.00 | 58 | 1005.2 |
| 20260504181704 | 71 | 216 | 9.0 | 19.0 | 0.00 | 0.00 | 0.00 | 57 | 1005.2 |
| 20260504180648 | 71 | 209 | 7.0 | 15.0 | 0.00 | 0.00 | 0.00 | 58 | 1004.7 |
| 20260504180147 | 70 | 206 | 8.0 | 14.0 | 0.00 | 0.00 | 0.00 | 59 | 1004.8 |
| 20260504175646 | 70 | 193 | 8.0 | 16.0 | 0.00 | 0.00 | 0.00 | 59 | 1004.8 |
| 20260504175145 | 70 | 191 | 8.0 | 16.0 | 0.00 | 0.00 | 0.00 | 58 | 1004.3 |
| 20260504174644 | 70 | 206 | 6.0 | 14.0 | 0.00 | 0.00 | 0.00 | 59 | 1004.6 |
| 20260504174143 | 70 | 218 | 7.0 | 14.0 | 0.00 | 0.00 | 0.00 | 59 | 1004.5 |
| 20260504173642 | 70 | 192 | 6.0 | 13.0 | 0.00 | 0.00 | 0.00 | 59 | 1004.3 |
| 20260504173141 | 70 | 210 | 7.0 | 16.0 | 0.00 | 0.00 | 0.00 | 59 | 1004.1 |
| 20260504172640 | 71 | 198 | 7.0 | 16.0 | 0.00 | 0.00 | 0.00 | 59 | 1004.4 |
| 20260504172140 | 71 | 207 | 7.0 | 21.0 | 0.00 | 0.00 | 0.00 | 58 | 1005.1 |
| 20260504171640 | 71 | 204 | 5.0 | 21.0 | 0.00 | 0.00 | 0.00 | 58 | 1004.8 |
| 20260504170623 | 71 | 212 | 10.0 | 20.0 | 0.00 | 0.00 | 0.00 | 59 | 1004.9 |
| 20260504170123 | 71 | 189 | 7.0 | 19.0 | 0.00 | 0.00 | 0.00 | 59 | 1004.7 |
| 20260504160118 | 71 | 207 | 9.0 | 19.0 | 0.00 | 0.00 | 0.00 | 57 | 1005.4 |
| 20260504151010 | 68 | 210 | 3.0 | 12.0 | 0.00 | 0.00 | 0.00 | 62 | 1005.6 |
| 20260504150509 | 68 | 218 | 5.0 | 12.0 | 0.00 | 0.00 | 0.00 | 61 | 1005.3 |
| 20260504140947 | 64 | 222 | 4.0 | 13.0 | 0.00 | 0.00 | 0.00 | 67 | 1005.7 |
| 20260504140447 | 63 | 210 | 5.0 | 13.0 | 0.00 | 0.00 | 0.00 | 68 | 1005.9 |
| 20260504110314 | 54 | 166 | 3.0 | 12.0 | 0.00 | 0.00 | 0.00 | 72 | 1005.8 |
| 20260504100255 | 53 | 176 | 3.0 | 12.0 | 0.00 | 0.00 | 0.00 | 71 | 1006.5 |
| 20260504081133 | 53 | 178 | 2.0 | 12.0 | 0.00 | 0.00 | 0.00 | 70 | 1007.1 |
| 20260504080633 | 53 | 179 | 2.0 | 12.0 | 0.00 | 0.00 | 0.00 | 70 | 1007.0 |
| 20260504080132 | 53 | 174 | 3.0 | 12.0 | 0.00 | 0.00 | 0.00 | 69 | 1007.1 |
| 20260504070115 | 54 | 183 | 4.0 | 12.0 | 0.00 | 0.00 | 0.00 | 68 | 1007.2 |
| 20260504045959 | 56 | 187 | 4.0 | 12.0 | 0.00 | 0.00 | 0.00 | 64 | 1008.6 |
| 20260504045459 | 56 | 181 | 3.0 | 12.0 | 0.00 | 0.00 | 0.00 | 64 | 1008.5 |
| 20260504044959 | 56 | 184 | 3.0 | 12.0 | 0.00 | 0.00 | 0.00 | 64 | 1008.3 |
| 20260504044459 | 56 | 188 | 3.0 | 12.0 | 0.00 | 0.00 | 0.00 | 64 | 1008.4 |
| 20260504043958 | 56 | 186 | 4.0 | 12.0 | 0.00 | 0.00 | 0.00 | 64 | 1008.7 |
| 20260504043458 | 56 | 184 | 4.0 | 12.0 | 0.00 | 0.00 | 0.00 | 64 | 1008.6 |
| 20260504041929 | 56 | 194 | 4.0 | 12.0 | 0.00 | 0.00 | 0.00 | 63 | 1008.5 |
| 20260504041427 | 56 | 191 | 3.0 | 12.0 | 0.00 | 0.00 | 0.00 | 63 | 1008.5 |
| 20260504040411 | 56 | 176 | 4.0 | 12.0 | 0.00 | 0.00 | 0.00 | 62 | 1008.7 |
| 20260504035912 | 57 | 189 | 4.0 | 12.0 | 0.00 | 0.00 | 0.00 | 62 | 1008.6 |